Simultaneous Nadir Overpasses (SNOs) Predictions

Prediction of SNOs between AQUA and METOP-A Satellite Orbit:

Table of predicted SNOs for the next 14.0 days since TLE Epoch: 1/11/2014
Index Date (AQUA) Time (AQUA) Lat,Lon (AQUA) SZA (AQUA ) Date (METOP-A) Time (METOP-A) Lat,Lon (METOP-A) SZA (METOP-A ) Distance(km) Time Diff (sec)
1 01/13/2014 02:44:50 -73.85, -47.02 84.60 01/13/2014 02:43:41 -73.84, -46.99 84.60 1.49 69
2 01/13/2014 03:34:19 73.93, 120.45 95.48 01/13/2014 03:34:20 73.90, 120.49 95.46 3.13 1
3 01/13/2014 04:23:46 -74.01, -72.09 84.44 01/13/2014 04:24:59 -74.02, -71.90 84.45 5.89 73
4 01/15/2014 22:18:58 -73.84, 19.46 85.10 01/15/2014 22:18:01 -73.84, 19.42 85.09 1.54 57
5 01/15/2014 23:08:27 73.92,-173.08 94.99 01/15/2014 23:08:40 73.90,-173.11 94.96 3.33 13
6 01/15/2014 23:58:03 -74.47, -6.70 84.44 01/15/2014 23:59:10 -74.45, -4.39 84.54 68.91 67
7 01/18/2014 17:53:06 -73.84, 85.93 85.64 01/18/2014 17:52:21 -73.88, 85.92 85.60 3.70 45
8 01/18/2014 18:42:35 73.93,-106.62 94.45 01/18/2014 18:43:00 73.93,-106.61 94.45 0.39 25
9 01/21/2014 13:27:13 -73.85, 152.40 86.24 01/21/2014 13:26:42 -73.86, 152.29 86.22 3.63 31
10 01/21/2014 14:16:42 73.94, -40.16 93.86 01/21/2014 14:17:20 73.96, -40.14 93.87 2.43 38
11 01/24/2014 08:11:40 73.22, 52.59 92.45 01/24/2014 08:10:34 73.15, 49.76 92.52 91.32 66
12 01/24/2014 09:01:19 -73.91,-141.26 86.81 01/24/2014 09:01:01 -73.88,-141.25 86.84 3.74 18
13 01/24/2014 09:50:47 73.96, 26.28 93.23 01/24/2014 09:51:39 73.98, 26.32 93.24 2.82 52




NCC Satellite Simultaneous Nadir Overpasses (SNOs) Prediction Service
